Zurück zum Katalog

FENGYUN 1C DEB

AktivPO
NORAD 33698·DEBRIS·🇨🇳 China

Gestartet May 10, 1999 von Taiyuan Satellite Launch Center

Loading…

Nächste Überflüge (nächste 24 Stunden)

TLE

AktuellSource: Space-Track

Epoche: Sep 12, 2026, 18:10 UTC

1 33698U 99025DGK 26255.75746679  .00000631  00000-0  13831-3 0  9994
2 33698  99.6459 263.1236 0137222 124.3602 237.0661 14.56470895996245

Verfolge FENGYUN 1C DEB in Echtzeit mit AllMySat

Download on the App Store